Regional Weather Roundup
Issued by NWS

Home | Current Version | Previous Version | Graphics & Text | Print | Product List | Glossary On
Versions: 1 2 3 4 5 6 7 8 9 10 11 12 13 14 15 16 17 18 19 20 21 22 23 24 25 26 27 28 29 30 31 32 33 34 35 36 37 38 39 40 41 42 43 44 45 46 47 48 49 50
000
ASUS43 KMKX 191311
RWRWI

WISCONSIN REGIONAL WEATHER ROUNDUP
NATIONAL WEATHER SERVICE MILWAUKEE/SULLIVAN WI
700 AM CST SUN FEB 19 2017

NOTE: "FAIR" INDICATES FEW OR NO CLOUDS BELOW 12,000 FEET WITH NO
SIGNIFICANT WEATHER AND/OR OBSTRUCTIONS TO VISIBILITY.

WIZ001-002-006>008-014>016-023>028-191400-
NORTHWEST WISCONSIN

CITY           SKY/WX    TMP DP  RH WIND       PRES   REMARKS
SUPERIOR ARPT  PTCLDY    26  26  97 CALM      29.96S
ASHLAND        CLOUDY    27  25  92 SW3       29.97R
HAYWARD        PTCLDY    26  23  88 CALM      29.96R
SIREN          PTCLDY    29  28  96 CALM      29.96R
CUMBERLAND     CLEAR     30  28  93 CALM      29.95R
RICE LAKE      CLEAR     28  28  99 CALM      29.98R
CHETEK         CLEAR     27  26  99 E6        29.96R FOG     WCI  20
LADYSMITH      CLEAR     29  28  96 CALM      29.98R
EAU CLAIRE     CLEAR     28  27  96 CALM      29.96R FOG
MENOMONIE      PTCLDY    28  28  98 CALM      29.97R FOG
NEW RICHMOND   PTCLDY    31  31 100 SE3       29.94S
OSCEOLA        PTCLDY    28  28 100 CALM      29.96S
$$

WIZ003>005-009-010-017-018-191400-
NORTH CENTRAL WISCONSIN

CITY           SKY/WX    TMP DP  RH WIND       PRES   REMARKS
MANITOWISH WTR PTCLDY    24  24 100 CALM      29.94R
ARBOR VITAE    PTCLDY    27  26  94 CALM      29.95R
WOODRUFF       PTCLDY    27  26  94 CALM      29.95R
RHINELANDER    CLEAR     28  26  92 CALM      29.95R
EAGLE RIVER    CLEAR     26  26  98 CALM      29.94R
LAND O LAKES   CLOUDY    25  24  94 CALM      29.96R
PHILLIPS       CLOUDY    26  26 100 CALM      29.96R
TOMAHAWK       CLEAR     27  26  96 CALM      29.96R
MEDFORD        CLEAR     30  29  96 CALM      29.96R FOG
MERRILL        NOT AVBL
$$

WIZ029-030-035-036-043>047-191400-
CENTRAL WISCONSIN

CITY           SKY/WX    TMP DP  RH WIND       PRES   REMARKS
WAUSAU         CLEAR     30  29  96 CALM      29.96R FOG
MOSINEE        PTCLDY    34  34 100 SW5       29.98R WCI  30
MARSHFIELD     CLEAR     34  31  88 N3        29.96R
STEVENS POINT  CLEAR     25  25  99 CALM      29.99R
WAUPACA        CLEAR     34  31  89 CALM      29.98R
WAUTOMA        CLEAR     28  27  96 CALM      29.99R
WISC RAPIDS    PTCLDY    27  27 100 CALM      29.99R
CAMP DOUGLAS   CLEAR     25  23  94 CALM      29.98R
$$

WIZ011>013-019>022-031-037>040-048>050-191400-
NORTHEAST WISCONSIN

CITY           SKY/WX    TMP DP  RH WIND       PRES   REMARKS
ANTIGO         CLEAR     25  24  98 CALM      29.95R
SHAWANO        CLEAR     33  31  89 CALM      29.97R
OCONTO         CLOUDY    29  27  92 CALM      29.97R
STURGEON BAY   CLEAR     37  29  72 W6        29.97R WCI  32
GREEN BAY      PTCLDY    33  32  96 CALM      29.97R
MANITOWOC      CLEAR     41  32  70 MISG      29.98R
APPLETON       PTCLDY    36  28  75 W7        29.94S WCI  30
CLINTONVILLE   CLEAR     32  30  93 CALM      29.96R
OSHKOSH        PTCLDY    33  28  81 CALM      29.97R
$$

WIZ032>034-041-042-053>061-191400-
SOUTHWEST WISCONSIN

CITY           SKY/WX    TMP DP  RH WIND       PRES   REMARKS
LA CROSSE      PTCLDY    30  28  92 SE3       29.99R
SPARTA         CLEAR     22  21  96 CALM      30.00R
VIROQUA        PTCLDY    40  32  75 CALM      29.98R
BOSCOBEL       CLOUDY    26  23  88 CALM      30.01R
PRAIRIE DU CHI PTCLDY    28  27  96 CALM      30.00R FOG
PLATTEVILLE    CLEAR     33  33  98 CALM      29.99R
$$

WIZ056-057-062-063-064-067-068-191400-
SOUTH CENTRAL WISCONSIN

CITY           SKY/WX    TMP DP  RH WIND       PRES   REMARKS
REEDSBURG      CLEAR     27  27 100 CALM      29.99R
BARABOO/DELLS  CLEAR     32  29  90 CALM      29.98R
LONE ROCK      CLEAR     26  24  92 CALM      30.00R
MINERAL POINT  CLEAR     37  32  81 CALM      29.98R
MADISON        PTCLDY    29  26  89 CALM      29.98R
MIDDLETON      CLEAR     30  30  98 CALM      29.99R
WATERTOWN      CLEAR     27  27 100 CALM      29.98R
MONROE         CLOUDY    43  30  61 CALM      29.98R
JANESVILLE     PTCLDY    30  30 100 CALM      29.99R
$$

WIZ051-052-058>065-066-070>072-191400-
SOUTHEAST WISCONSIN

CITY           SKY/WX    TMP DP  RH WIND       PRES   REMARKS
MILWAUKEE      PTCLDY    43  30  60 W6        29.98R
WAUKESHA       CLEAR     34  28  80 CALM      29.99R
MILWAUKEE/TIMM CLEAR     34  28  80 CALM      30.00R
RACINE         CLEAR     41  30  65 NW7       30.00R
KENOSHA        CLEAR     32  27  81 NW5       29.99R WCI  27
FOND DU LAC    PTCLDY    32  27  81 S6        29.98R WCI  26
SHEBOYGAN      CLEAR     40  31  70 NW6       29.97R
WEST BEND      PTCLDY    32  30  93 CALM      29.99R
JUNEAU         CLEAR     33  30  88 CALM      29.99R
$$

LSZ147-162-191400-
LAKE SUPERIOR

STATION/POSITION TIME  TEMP    WIND        PRES    WAVE
                       AIR SEA DIR/SP/G            HT/PER
                 (UTC) (F)     (DEG/KT/KT) (MB)    (FT/S)
DEVILS ISLAND    1200   37     250/  3/  4 1015.0R
PORT WING        1230   29     120/  3/  5 1014.6R
SAXON HARBOR     1240   29     190/  4/  6 1014.2R
$$

LMZ867-665-643>646-191400-
LAKE MICHIGAN

STATION/POSITION TIME  TEMP    WIND        PRES    WAVE
                       AIR SEA DIR/SP/G            HT/PER
                 (UTC) (F)     (DEG/KT/KT) (MB)    (FT/S)
CHAMBERS ISLAND  1230   33     320/  2/  3 1013.5R
NORTHPORT PIER   1240   44     300/  6/ 10 1014.2R
SISTER BAY       1220   38        CALM       N/A
KEWAUNEE LAKESHO 1248   39     300/  7/  8 1014.3R
SHEBOYGAN LAKESH 1200   45     280/ 12/ 14 1014.1R
PORT WASHINGTON  1230   45     300/  8/ 11 1015.6R
MILWAUKEE LAKESH 1250   46     300/  8/  9   N/A
KENOSHA   LAKESH 1200   45     300/  5/  7 1014.6
$$

TC  - TEMPERATURE IN CELSIUS
VSB - VISIBILITY IN STATUTE MILES
WCI - WIND CHILL INDEX
HX  - HEAT INDEX





USA.gov is the U.S. government's official web portal to all federal, state and local government web resources and services.